Location: Moscow Pond
(43.6842°N, 73.2366°W)
Time: 00:56:54
(UTC+00:00)

CZ-2C R/B - Pass Details

Date: 08 November 2025
Orbit: 664 x 773 km, 98.4° (Epoch: 04 December)

Event Time Altitude Azimuth Distance (km) Brightness Sun altitude
Rises 10:51:22 0° 352° (N) 3,184 5.5 -8.9°
Reaches altitude 10° 10:55:47 10° 315° (NW) 2,282 4.4 -8.1°
Maximum altitude 10:56:45 11° 304° (WNW) 2,249 4.3 -7.9°
Drops below altitude 10° 10:57:43 10° 292° (WNW) 2,290 4.3 -7.8°
Enters shadow 10:58:18 - 286° (WNW) 2,349 4.3 -7.7°
